SCP
0 0 0 0 0 0 0 0 0 0 0 0 0 0 0 0 0 0 0 0 0 0 0 0 0 0 0 0 0 0 0 0 0 0 0 0 0 0 0 0 0 0 0
0 0 0 0 0 0 0 0 0 0 0 0 0 0 0 0 0 0 0 0 0 0 0 0 0 0 0 0 0 0 0 0 0 0 0 0 0 0 0 0 0 0 0
0 0 0 0 0 0 0 0 0 0 0 0 0 0 0 0 0 0 0 0 0 0 0 0 0 0 0 0 0 0 0 0 0 0 0 0 0 0 0 0 0 0 0
0 0 0 0 0 0 0 0 0 0 0 0 0 0 0 0 0 0 0 0 0 0 0 0 0 0 0 0 0 0 0 0 0 0 0 0 0 0 0 0 0 0 0
0 0 0 0 0 0 0 0 0 0 0 0 0 0 0 0 0 0 0 0 0 0 0 0 0 0 0 0 0 0 0 0 0 0 0 0 0 0 0 0 0 0 0
0 0 0 0 0 0 0 0 0 0 0 0 0 0 0 0 0 0 0 0 0 0 0 0 0 0 0 0 0 0 0 0 0 0 0 0 0 0 0 0 0 0 -0
0 0 0 0 0 0 0 0 0 0 0 0 0 0 0 0 0 0 0 0 0 0 0 0 0 0 0 0 0 0 0 0 0 0 0 0 0 0 0 0 0 0 0
0 0 0 0 0 0 0 0 0 0 0 0 0 0 0 0 0 0 0 0 0 0 0 0 0 0 0 0 0 0 0 0 0 0 0 0 0 0 0 0 0 0 0
0 0 0 0 0 0 0 0 0 0 0 0 0 0 0 0 0 0 0 0 0 0 0 0 0 0 0 0 0 0 0 0 0 0 0 0 0 0 0 0 0 0 0
0 0 0 0 0 0 0 0 0 0 0 0 0 0 0 0 0 0 0 0 0 0 0 0 0 0 0 0 0 0 0 0 0 0 0 0 0 0 0 0 0 0 0
0 0 0 0 0 0 0 0 0 0 0 0 0 0 0 0 0 0 0 0 0 0 0 0 0 0 0 0 0 0 0 0 0 0 0 0 0 0 0 0 0 0 0
0 0 0 0 0 0 0 0 0 0 0 0 0 0 0 0 0 0 0 0 0 0 0 0 0 0 0 0 0 0 0 0 0 0 0 0 0 0 0 0 0 0 0
0 0 0 0 0 0 0 0 0 0 0 0 0 0 0 0 0 0 0 0 0 0 0 0 0 0 0 0 0 0 0 0 0 0 0 0 0 0 0 0 0 0 0
0 0 0 0 0 0 0 0 0 0 0 0 0 0 0 0 0 0 0 0 0 0 0 0 0 0 0 0 0 0 0 0 0 0 0 0 0 0 0 0 0 0 0
0 0 0 0 0 0 0 0 0 0 0 0 0 0 0 0 0 0 0 0 0 0 0 0 0 0 0 0 0 0 0 0 0 0 0 0 0 0 0 0 0 0 0
0 0 0 0 0 0 0 0 0 0 0 0 0 0 0 0 0 0 0 0 0 0 0 0 0 0 0 0 0 0 0 0 0 0 0 0 0 0 0 0 0 0 0
0 0 0 0 0 0 0 0 0 0 0 0 0 0 0 0 0 0 0 0 0 0 0 0 0 0 0 0 0 0 0 0 0 0 0 0 0 0 0 0 0 0 0
0 0 0 0 0 0 0 0 0 0 0 0 0 0 0 0 0 0 0 0 0 0 0 0 0 0 0 0 0 0 0 0 0 0 0 0 0 0 0 0 0 0 0
0 0 0 0 0 0 0 0 0 0 0 0 0 0 0 0 0 0 0 0 0 0 0 0 0 0 0 0 0 0 0 0 0 0 0 0 0 0 0 0 0 0 0
0 0 0 0 0 0 0 0 0 0 0 0 0 0 0 0 0 0 0 0 0 0 0 0 0 0 0 0 0 0 0 0 0 0 0 0 0 0 0 0 0 0 0
0 0 0 0 0 0 0 0 0 0 0 0 0 0 0 0 0 0 0 0 0 0 0 0 0 0 0 0 0 0 0 0 0 0 0 0 0 0 0 0 0 0 0
0 0 0 0 0 0 0 0 0 0 0 0 0 0 0 0 0 0 0 0 0 0 0 0 0 0 0 0 0 0 0 0 0 0 0 0 0 0 0 0 0 0 0
0 0 0 0 0 0 0 0 0 0 0 0 0 0 0 0 0 0 0 0 0 0 0 0 0 0 0 0 0 0 0 0 0 0 0 0 0 0 0 0 0 0 0
0 0 0 0 0 0 0 0 0 0 0 0 0 0 0 0 0 0 0 0 0 0 0 0 0 0 0 0 0 0 0 0 0 0 0 0 0 0 0 0 0 0 0
0 0 0 0 0 0 0 0 0 0 0 0 0 0 0 0 0 0 0 0 0 0 0 0 0 0 0 0 0 0 0 0 0 0 0 0 0 0 0 0 0 0 0
0 0 0 0 0 0 0 0 0 0 0 0 0 0 0 0 0 0 0 0 0 0 0 0 0 0 0 0 0 0 -0 -0 0 0 0 0 0 0 0 0 0 0 0
Wind_Speed_500mb
33 36 38 40 39 39 38 40 40 39 38 37 35 32 30 28 27 26 25 24 24 24 25 28 31 34 39 43 47 51 54 55 67 86 77 77 75 77 76 73 73 74 73
30 32 34 34 33 36 39 39 40 40 40 38 34 31 28 27 26 26 24 23 23 26 29 32 35 39 42 47 51 54 57 59 62 81 83 85 84 81 82 80 76 73 73
31 31 33 32 35 38 40 42 42 43 41 38 36 35 35 33 31 28 28 28 28 29 31 35 39 44 47 51 56 61 65 67 68 73 88 86 89 88 87 83 82 84 80
43 42 43 40 41 43 45 46 46 46 45 45 45 44 40 37 35 35 35 35 34 33 36 42 46 49 52 55 61 64 68 74 76 78 86 92 93 93 90 89 93 88 93
50 52 50 49 50 51 51 51 50 51 52 52 51 48 44 43 43 41 40 40 42 43 44 47 51 55 57 61 66 70 72 76 81 86 92 95 99 97 94 92 94 99 101
51 54 55 58 59 61 58 57 57 57 58 58 56 54 51 50 48 47 47 47 48 49 51 53 59 64 68 70 72 76 78 81 86 84 91 96 104 96 93 94 94 95 109
57 56 58 62 66 67 65 65 64 65 65 63 62 59 57 55 52 52 52 53 54 54 57 64 71 75 79 81 81 84 88 89 88 84 90 95 97 93 89 92 93 96 105
57 59 60 61 63 69 70 70 70 68 67 67 65 62 61 58 54 52 54 57 60 64 69 75 82 89 90 89 90 93 96 94 90 86 91 98 92 90 82 84 93 106 116
56 58 59 61 63 63 66 69 71 71 69 67 65 62 61 59 56 55 57 62 69 76 79 83 94 98 94 90 89 95 102 103 97 93 93 97 97 94 91 92 98 87 110
50 52 54 55 58 60 62 64 67 67 66 64 62 60 59 56 55 58 63 67 74 78 90 98 94 95 95 88 84 92 108 109 99 101 104 107 104 101 91 82 85 84 78
44 42 40 40 42 46 49 52 56 58 58 56 54 54 55 58 61 64 67 79 86 90 89 90 90 89 87 87 85 90 100 103 106 103 106 109 103 98 90 83 78 81 85
31 31 29 27 27 29 33 37 40 43 45 47 50 51 53 56 58 61 65 67 67 71 78 84 89 89 90 92 91 94 90 86 95 101 102 102 89 82 78 75 73 76 85
18 18 18 18 18 20 22 26 30 34 37 40 42 44 45 48 50 53 57 60 63 68 74 80 86 90 93 96 95 92 84 88 90 88 92 95 85 84 85 81 80 81 85
11 12 12 14 15 17 19 21 24 26 29 32 35 38 40 41 42 47 51 56 59 64 70 78 83 88 92 94 96 93 85 74 72 80 86 92 91 86 88 84 86 85 88
9 10 10 12 14 15 17 17 19 21 23 25 28 31 36 38 39 42 47 52 57 62 67 75 82 88 96 97 95 89 85 75 71 74 79 86 85 83 84 77 81 83 85
3 5 7 10 12 12 12 12 12 13 15 18 21 27 29 35 41 44 48 52 54 56 63 72 80 84 89 91 91 90 81 75 71 72 75 77 83 81 82 78 77 81 87
12 12 13 14 14 15 16 14 13 14 15 18 24 28 34 37 41 45 49 51 53 56 60 68 75 82 88 90 89 87 89 82 77 78 80 81 81 86 84 80 78 82 85
18 15 14 16 18 16 16 17 18 19 20 22 25 30 33 38 42 46 48 53 56 56 61 67 73 78 83 89 90 90 90 87 80 78 78 79 79 80 80 79 79 84 83
11 12 12 12 13 17 18 21 22 23 24 26 28 31 38 40 43 45 49 54 59 62 63 67 70 76 81 85 88 90 89 88 85 87 86 84 83 81 85 85 84 87 88
13 14 15 16 18 20 22 24 25 25 27 29 32 37 40 45 47 49 51 55 59 62 65 68 70 73 77 81 85 86 90 90 89 82 82 82 83 81 86 85 81 81 77
15 17 18 19 20 21 21 23 25 28 29 31 32 35 40 43 47 49 53 55 58 62 66 69 73 76 79 82 84 87 88 92 91 89 86 85 82 84 85 87 84 81 79
19 20 22 22 23 24 25 26 28 30 32 34 35 35 39 43 48 51 54 57 59 62 66 72 78 80 81 83 85 92 97 100 100 98 94 91 87 85 83 81 85 80 76
24 24 25 26 27 27 28 28 30 32 34 36 39 42 43 46 50 54 58 61 63 66 68 73 78 83 83 84 90 93 102 106 106 102 100 97 98 94 85 80 78 74 74
31 31 31 31 31 30 31 31 32 35 38 40 41 43 46 49 53 56 59 63 65 67 69 75 81 82 84 86 90 94 93 98 97 87 84 93 101 102 97 87 80 73 72
34 34 34 34 33 33 34 35 37 38 40 42 44 46 48 51 55 58 60 63 65 67 72 76 81 81 83 90 92 92 95 104 89 75 74 83 89 95 97 87 78 68 54
37 38 38 38 38 38 39 39 40 41 43 44 46 48 51 54 56 59 61 63 67 67 70 77 82 84 88 95 95 92 100 99 71 63 67 71 71 70 73 71 62 47 47
Wind_Direction_500mb
230 228 227 229 227 228 233 235 232 228 222 219 222 227 230 237 244 253 263 273 285 296 304 309 314 316 317 315 312 309 305 301 297 304 305 305 304 306 308 310 309 309 311
219 216 215 220 226 235 231 224 219 218 219 223 223 225 233 243 251 260 271 283 292 299 305 310 315 318 321 319 317 314 311 309 302 302 306 307 307 308 307 308 308 308 310
240 234 232 234 237 232 226 224 223 225 227 225 226 233 238 243 251 260 269 276 282 290 299 306 312 315 318 318 317 315 313 309 304 300 303 305 305 307 307 307 309 309 307
255 249 242 245 244 238 232 231 233 234 230 228 231 236 240 245 252 258 262 266 271 278 288 296 303 307 311 314 314 314 312 308 305 302 301 302 303 305 305 308 307 307 308
258 256 252 252 251 248 244 240 240 238 236 236 238 241 243 247 250 251 256 261 268 276 286 295 302 302 302 305 307 309 308 306 304 302 301 301 300 303 304 307 305 306 305
269 262 258 257 256 254 250 248 247 244 242 242 244 245 246 247 250 254 259 264 270 277 284 291 297 300 300 298 300 303 305 304 301 298 298 296 299 299 301 302 302 303 304
269 269 266 263 261 259 254 251 250 248 247 247 247 247 247 248 250 255 262 269 276 283 288 291 293 296 298 298 299 301 302 302 299 298 295 293 295 298 299 297 296 295 292
262 259 259 258 256 254 253 251 250 249 249 248 248 249 251 254 257 261 266 274 282 287 289 292 294 297 297 298 299 300 302 300 297 296 294 295 295 296 293 290 288 288 289
256 255 254 255 256 251 249 250 249 247 247 248 249 251 253 257 264 269 274 279 283 286 289 291 293 292 295 296 302 301 300 299 300 299 295 293 291 289 288 287 283 286 288
259 259 258 257 253 252 248 245 244 244 245 247 249 253 257 264 271 276 279 282 284 288 289 289 288 292 297 303 301 301 300 302 303 300 298 296 294 292 289 283 283 275 275
254 254 255 254 250 248 246 241 239 240 243 248 255 261 267 271 275 279 282 288 284 281 284 291 295 297 298 296 292 291 293 296 294 292 293 292 291 289 287 283 277 270 266
253 253 252 252 250 248 245 242 242 246 252 259 264 267 269 272 275 277 279 282 286 288 291 294 298 300 300 301 300 301 300 298 296 296 294 291 287 283 282 280 277 270 266
247 245 243 242 238 237 238 242 245 248 251 256 262 268 272 277 281 286 290 294 296 297 298 302 304 304 304 304 305 305 302 300 298 290 288 289 285 286 285 280 275 272 270
227 230 232 235 235 239 241 246 252 256 263 269 274 279 285 289 293 293 296 299 303 304 305 303 305 309 310 311 312 311 307 300 292 287 286 287 288 286 282 281 281 280 279
217 233 239 244 249 250 252 256 266 273 278 285 288 294 299 306 308 310 313 312 313 314 313 312 315 315 314 313 312 307 304 299 292 289 285 285 285 284 282 281 279 278 272
270 291 297 292 289 287 288 292 295 300 306 311 314 318 319 320 321 323 323 323 323 324 319 321 319 318 316 315 310 307 304 299 295 291 288 285 284 283 282 281 277 274 274
348 346 344 338 329 326 325 323 325 328 330 323 325 324 323 321 323 326 327 330 332 331 326 327 325 323 321 318 313 309 306 302 298 292 291 287 286 282 280 281 279 274 272
324 325 330 330 330 329 330 330 336 337 337 335 332 329 331 332 333 332 335 331 328 333 333 333 331 329 326 322 317 310 304 298 293 290 287 285 283 281 281 280 279 275 274
326 329 334 335 331 331 332 331 334 338 337 337 334 333 334 336 335 341 336 333 333 334 336 335 334 332 329 325 321 315 308 300 294 291 287 284 283 282 279 278 279 276 274
324 322 325 326 326 326 325 325 329 331 332 334 334 332 331 330 336 337 337 338 336 335 336 333 332 331 329 328 324 318 312 308 302 294 288 285 282 279 278 278 277 276 277
302 306 308 308 310 309 310 316 320 322 325 328 331 333 334 336 334 335 337 337 336 336 335 333 333 332 331 330 328 323 316 308 303 300 295 288 282 278 275 275 277 277 277
288 291 295 298 300 303 307 313 315 318 322 325 328 331 331 332 331 333 333 334 334 335 336 334 333 333 332 331 329 328 322 313 309 303 299 294 288 281 276 274 274 277 276
284 284 286 289 292 297 302 309 313 315 319 322 326 330 332 332 331 332 332 332 332 333 336 336 335 333 334 333 332 326 316 309 305 302 298 297 292 286 280 273 270 270 280
280 280 280 284 289 295 301 305 309 314 318 321 324 327 329 330 331 331 332 331 331 332 335 337 335 334 335 334 333 325 318 314 307 299 298 297 295 292 283 278 274 272 268
275 277 280 284 288 293 299 304 308 312 315 318 322 324 326 328 330 331 332 333 333 333 338 339 339 337 337 337 333 331 326 318 308 297 297 296 291 292 285 275 270 266 262
281 281 284 287 290 293 297 301 305 309 312 315 318 322 324 327 329 330 332 334 335 335 336 339 339 340 342 339 336 334 328 325 314 304 298 292 289 287 284 271 267 257 255
Wind_Speed_850mb
33 36 38 40 39 39 38 40 40 39 38 37 35 32 30 28 27 26 25 24 24 24 25 28 31 34 39 43 47 51 54 55 67 86 77 77 75 77 76 73 73 74 73
30 32 34 34 33 36 39 39 40 40 40 38 34 31 28 27 26 26 24 23 23 26 29 32 35 39 42 47 51 54 57 59 62 81 83 85 84 81 82 80 76 73 73
31 31 33 32 35 38 40 42 42 43 41 38 36 35 35 33 31 28 28 28 28 29 31 35 39 44 47 51 56 61 65 67 68 73 88 86 89 88 87 83 82 84 80
43 42 43 40 41 43 45 46 46 46 45 45 45 44 40 37 35 35 35 35 34 33 36 42 46 49 52 55 61 64 68 74 76 78 86 92 93 93 90 89 93 88 93
50 52 50 49 50 51 51 51 50 51 52 52 51 48 44 43 43 41 40 40 42 43 44 47 51 55 57 61 66 70 72 76 81 86 92 95 99 97 94 92 94 99 101
51 54 55 58 59 61 58 57 57 57 58 58 56 54 51 50 48 47 47 47 48 49 51 53 59 64 68 70 72 76 78 81 86 84 91 96 104 96 93 94 94 95 109
57 56 58 62 66 67 65 65 64 65 65 63 62 59 57 55 52 52 52 53 54 54 57 64 71 75 79 81 81 84 88 89 88 84 90 95 97 93 89 92 93 96 105
57 59 60 61 63 69 70 70 70 68 67 67 65 62 61 58 54 52 54 57 60 64 69 75 82 89 90 89 90 93 96 94 90 86 91 98 92 90 82 84 93 106 116
56 58 59 61 63 63 66 69 71 71 69 67 65 62 61 59 56 55 57 62 69 76 79 83 94 98 94 90 89 95 102 103 97 93 93 97 97 94 91 92 98 87 110
50 52 54 55 58 60 62 64 67 67 66 64 62 60 59 56 55 58 63 67 74 78 90 98 94 95 95 88 84 92 108 109 99 101 104 107 104 101 91 82 85 84 78
44 42 40 40 42 46 49 52 56 58 58 56 54 54 55 58 61 64 67 79 86 90 89 90 90 89 87 87 85 90 100 103 106 103 106 109 103 98 90 83 78 81 85
31 31 29 27 27 29 33 37 40 43 45 47 50 51 53 56 58 61 65 67 67 71 78 84 89 89 90 92 91 94 90 86 95 101 102 102 89 82 78 75 73 76 85
18 18 18 18 18 20 22 26 30 34 37 40 42 44 45 48 50 53 57 60 63 68 74 80 86 90 93 96 95 92 84 88 90 88 92 95 85 84 85 81 80 81 85
11 12 12 14 15 17 19 21 24 26 29 32 35 38 40 41 42 47 51 56 59 64 70 78 83 88 92 94 96 93 85 74 72 80 86 92 91 86 88 84 86 85 88
9 10 10 12 14 15 17 17 19 21 23 25 28 31 36 38 39 42 47 52 57 62 67 75 82 88 96 97 95 89 85 75 71 74 79 86 85 83 84 77 81 83 85
3 5 7 10 12 12 12 12 12 13 15 18 21 27 29 35 41 44 48 52 54 56 63 72 80 84 89 91 91 90 81 75 71 72 75 77 83 81 82 78 77 81 87
12 12 13 14 14 15 16 14 13 14 15 18 24 28 34 37 41 45 49 51 53 56 60 68 75 82 88 90 89 87 89 82 77 78 80 81 81 86 84 80 78 82 85
18 15 14 16 18 16 16 17 18 19 20 22 25 30 33 38 42 46 48 53 56 56 61 67 73 78 83 89 90 90 90 87 80 78 78 79 79 80 80 79 79 84 83
11 12 12 12 13 17 18 21 22 23 24 26 28 31 38 40 43 45 49 54 59 62 63 67 70 76 81 85 88 90 89 88 85 87 86 84 83 81 85 85 84 87 88
13 14 15 16 18 20 22 24 25 25 27 29 32 37 40 45 47 49 51 55 59 62 65 68 70 73 77 81 85 86 90 90 89 82 82 82 83 81 86 85 81 81 77
15 17 18 19 20 21 21 23 25 28 29 31 32 35 40 43 47 49 53 55 58 62 66 69 73 76 79 82 84 87 88 92 91 89 86 85 82 84 85 87 84 81 79
19 20 22 22 23 24 25 26 28 30 32 34 35 35 39 43 48 51 54 57 59 62 66 72 78 80 81 83 85 92 97 100 100 98 94 91 87 85 83 81 85 80 76
24 24 25 26 27 27 28 28 30 32 34 36 39 42 43 46 50 54 58 61 63 66 68 73 78 83 83 84 90 93 102 106 106 102 100 97 98 94 85 80 78 74 74
31 31 31 31 31 30 31 31 32 35 38 40 41 43 46 49 53 56 59 63 65 67 69 75 81 82 84 86 90 94 93 98 97 87 84 93 101 102 97 87 80 73 72
34 34 34 34 33 33 34 35 37 38 40 42 44 46 48 51 55 58 60 63 65 67 72 76 81 81 83 90 92 92 95 104 89 75 74 83 89 95 97 87 78 68 54
37 38 38 38 38 38 39 39 40 41 43 44 46 48 51 54 56 59 61 63 67 67 70 77 82 84 88 95 95 92 100 99 71 63 67 71 71 70 73 71 62 47 47
Wind_Direction_850mb
230 228 227 229 227 228 233 235 232 228 222 219 222 227 230 237 244 253 263 273 285 296 304 309 314 316 317 315 312 309 305 301 297 304 305 305 304 306 308 310 309 309 311
219 216 215 220 226 235 231 224 219 218 219 223 223 225 233 243 251 260 271 283 292 299 305 310 315 318 321 319 317 314 311 309 302 302 306 307 307 308 307 308 308 308 310
240 234 232 234 237 232 226 224 223 225 227 225 226 233 238 243 251 260 269 276 282 290 299 306 312 315 318 318 317 315 313 309 304 300 303 305 305 307 307 307 309 309 307
255 249 242 245 244 238 232 231 233 234 230 228 231 236 240 245 252 258 262 266 271 278 288 296 303 307 311 314 314 314 312 308 305 302 301 302 303 305 305 308 307 307 308
258 256 252 252 251 248 244 240 240 238 236 236 238 241 243 247 250 251 256 261 268 276 286 295 302 302 302 305 307 309 308 306 304 302 301 301 300 303 304 307 305 306 305
269 262 258 257 256 254 250 248 247 244 242 242 244 245 246 247 250 254 259 264 270 277 284 291 297 300 300 298 300 303 305 304 301 298 298 296 299 299 301 302 302 303 304
269 269 266 263 261 259 254 251 250 248 247 247 247 247 247 248 250 255 262 269 276 283 288 291 293 296 298 298 299 301 302 302 299 298 295 293 295 298 299 297 296 295 292
262 259 259 258 256 254 253 251 250 249 249 248 248 249 251 254 257 261 266 274 282 287 289 292 294 297 297 298 299 300 302 300 297 296 294 295 295 296 293 290 288 288 289
256 255 254 255 256 251 249 250 249 247 247 248 249 251 253 257 264 269 274 279 283 286 289 291 293 292 295 296 302 301 300 299 300 299 295 293 291 289 288 287 283 286 288
259 259 258 257 253 252 248 245 244 244 245 247 249 253 257 264 271 276 279 282 284 288 289 289 288 292 297 303 301 301 300 302 303 300 298 296 294 292 289 283 283 275 275
254 254 255 254 250 248 246 241 239 240 243 248 255 261 267 271 275 279 282 288 284 281 284 291 295 297 298 296 292 291 293 296 294 292 293 292 291 289 287 283 277 270 266
253 253 252 252 250 248 245 242 242 246 252 259 264 267 269 272 275 277 279 282 286 288 291 294 298 300 300 301 300 301 300 298 296 296 294 291 287 283 282 280 277 270 266
247 245 243 242 238 237 238 242 245 248 251 256 262 268 272 277 281 286 290 294 296 297 298 302 304 304 304 304 305 305 302 300 298 290 288 289 285 286 285 280 275 272 270
227 230 232 235 235 239 241 246 252 256 263 269 274 279 285 289 293 293 296 299 303 304 305 303 305 309 310 311 312 311 307 300 292 287 286 287 288 286 282 281 281 280 279
217 233 239 244 249 250 252 256 266 273 278 285 288 294 299 306 308 310 313 312 313 314 313 312 315 315 314 313 312 307 304 299 292 289 285 285 285 284 282 281 279 278 272
270 291 297 292 289 287 288 292 295 300 306 311 314 318 319 320 321 323 323 323 323 324 319 321 319 318 316 315 310 307 304 299 295 291 288 285 284 283 282 281 277 274 274
348 346 344 338 329 326 325 323 325 328 330 323 325 324 323 321 323 326 327 330 332 331 326 327 325 323 321 318 313 309 306 302 298 292 291 287 286 282 280 281 279 274 272
324 325 330 330 330 329 330 330 336 337 337 335 332 329 331 332 333 332 335 331 328 333 333 333 331 329 326 322 317 310 304 298 293 290 287 285 283 281 281 280 279 275 274
326 329 334 335 331 331 332 331 334 338 337 337 334 333 334 336 335 341 336 333 333 334 336 335 334 332 329 325 321 315 308 300 294 291 287 284 283 282 279 278 279 276 274
324 322 325 326 326 326 325 325 329 331 332 334 334 332 331 330 336 337 337 338 336 335 336 333 332 331 329 328 324 318 312 308 302 294 288 285 282 279 278 278 277 276 277
302 306 308 308 310 309 310 316 320 322 325 328 331 333 334 336 334 335 337 337 336 336 335 333 333 332 331 330 328 323 316 308 303 300 295 288 282 278 275 275 277 277 277
288 291 295 298 300 303 307 313 315 318 322 325 328 331 331 332 331 333 333 334 334 335 336 334 333 333 332 331 329 328 322 313 309 303 299 294 288 281 276 274 274 277 276
284 284 286 289 292 297 302 309 313 315 319 322 326 330 332 332 331 332 332 332 332 333 336 336 335 333 334 333 332 326 316 309 305 302 298 297 292 286 280 273 270 270 280
280 280 280 284 289 295 301 305 309 314 318 321 324 327 329 330 331 331 332 331 331 332 335 337 335 334 335 334 333 325 318 314 307 299 298 297 295 292 283 278 274 272 268
275 277 280 284 288 293 299 304 308 312 315 318 322 324 326 328 330 331 332 333 333 333 338 339 339 337 337 337 333 331 326 318 308 297 297 296 291 292 285 275 270 266 262
281 281 284 287 290 293 297 301 305 309 312 315 318 322 324 327 329 330 332 334 335 335 336 339 339 340 342 339 336 334 328 325 314 304 298 292 289 287 284 271 267 257 255